SCP
0 0 0 0 0 0 0 0 0 0 0 0 0 0 0 0 0 0 0 0 0 0 0 0 0 0 0 0 0 0 0 0 0 0 0 0 0 0 0 0 0 0 0 0
0 0 0 0 0 0 0 0 0 0 0 0 0 0 0 0 0 0 0 0 0 0 0 0 0 0 0 0 0 0 0 0 0 0 0 0 0 0 0 0 0 0 0 0
0 0 0 0 0 0 0 0 0 0 0 0 0 0 0 0 0 0 0 0 0 0 0 0 0 0 0 0 0 0 0 0 0 0 0 0 0 0 0 0 0 0 0 0
0 0 0 0 0 0 0 0 0 0 0 0 0 0 0 0 0 0 0 -0 -0 0 0 0 0 0 0 0 0 0 0 0 0 0 0 0 0 0 0 0 0 0 0 0
0 0 0 0 0 0 0 0 0 0 0 0 0 0 0 0 0 0 0 -0 -0 -0 -0 0 0 0 0 0 0 0 0 0 0 0 0 0 0 0 0 0 0 0 0 0
0 0 0 0 0 0 0 0 0 0 0 0 0 0 0 0 0 0 0 0 0 0 0 0 0 0 0 0 0 0 0 0 0 0 0 0 0 0 0 0 0 0 0 0
0 0 0 0 0 0 0 0 0 0 0 0 0 0 0 0 0 0 -0 0 0 0 0 0 0 0 0 0 0 0 0 0 0 0 0 0 0 0 0 0 0 0 0 0
0 0 0 0 0 0 0 0 0 0 0 0 0 0 0 0 0 0 0 0 0 0 0 0 0 0 0 0 0 0 0 0 0 0 0 0 0 0 0 0 0 0 0 0
0 0 0 0 0 0 0 0 0 0 0 0 0 0 0 0 0 0 0 0 0 0 0 0 0 0 0 0 0 0 0 0 0 0 0 0 0 0 0 0 0 0 0 0
0 0 0 0 0 0 0 0 0 0 0 0 0 0 0 0 0 0 0 0 0 -0 -0 -0 0 0 -0 -0 0 0 0 0 0 0 0 0 0 0 0 0 0 0 0 0
0 -0 -0 0 0 0 0 0 0 0 0 0 0 0 0 0 0 0 0 0 -0 -0 -0 -0 -0 -0 -0 -0 0 0 0 0 0 0 0 0 0 0 0 0 0 0 0 0
0 -0 0 0 0 0 0 0 0 0 0 0 0 0 0 0 0 0 -0 -0 -0 -0 0 0 -0 -0 -0 -0 -0 0 0 0 0 0 0 0 0 0 0 0 0 0 0 0
0 -0 0 0 0 0 0 0 0 0 0 0 0 0 0 0 0 -0 -0 -0 -0 -0 -0 0 -0 -0 -0 0 0 0 0 0 0 0 0 0 0 0 0 0 0 0 0 0
-0 -0 0 0 0 0 0 0 0 0 0 0 0 0 0 0 -0 -0 -0 -0 -0 -0 -0 -0 -0 -0 0 0 0 -0 -0 -0 0 0 0 0 0 0 0 0 0 0 0 0
-0 -0 0 0 0 0 0 0 0 0 0 0 0 -0 0 0 0 0 -0 -0 -0 -0 -0 -0 -0 0 -0 -0 0 -0 -0 0 -0 0 -0 -0 0 0 0 0 0 0 0 0
-0 -0 -0 -0 0 0 0 0 0 0 0 0 0 -0 0 0 -0 -0 -0 -0 -0 -0 -0 -0 -0 0 0 0 -0 0 0 -0 -0 -0 -0 -0 -0 0 0 0 0 0 0 0
-0 -0 -0 0 -0 -0 0 0 0 0 0 0 0 -0 -0 -0 -0 -0 -0 -0 -0 -0 -0 0 0 0 0 0 -0 0 0 0 0 0 0 0 0 0 0 0 0 0 0 0
-0 -0 -0 -0 -0 -0 0 0 0 0 0 0 0 -0 -0 -0 -0 -0 -0 -0 -0 -0 0 0 0 0 0 0 0 0 0 0 0 0 -0 0 -0 -0 -0 0 0 0 0 0
-0 -0 -0 -0 0 0 0 0 0 0 0 0 0 -0 -0 -0 -0 -0 -0 -0 0 0 0 0 -0 0 0 0 0 0 0 0 0 0 0 0 0 0 0 0 0 0 0 0
-0 -0 -0 -0 -0 0 0 0 0 0 -0 0 0 0 -0 -0 -0 -0 0 0 0 0 0 -0 -0 0 0 0 0 0 0 0 0 0 0 0 0 0 0 0 0 0 0 0
-0 -0 -0 -0 -0 0 0 0 0 0 0 0 0 -0 -0 -0 -0 -0 0 0 0 -0 -0 -0 0 0 0 0 0 0 0 0 0 0 0 0 0 0 0 0 0 0 0 0
-0 -0 -0 -0 -0 0 0 0 0 0 -0 0 0 0 0 -0 -0 -0 0 0 -0 -0 0 0 0 0 0 0 0 0 0 0 0 0 0 0 0 0 0 0 0 0 0 0
-0 -0 -0 -0 -0 -0 0 0 0 0 -0 0 0 0 0 0 0 0 -0 -0 -0 0 0 0 0 0 0 0 0 0 0 0 0 0 0 0 0 0 0 0 0 0 0 0
-0 -0 0 -0 -0 -0 -0 0 0 0 0 0 0 0 0 0 0 0 0 -0 -0 0 0 -0 -0 -0 -0 0 0 0 0 0 0 0 0 0 0 0 0 0 0 0 0 0
-0 -0 -0 -0 0 0 -0 -0 0 0 0 -0 0 0 0 0 0 0 0 0 -0 -0 -0 -0 -0 -0 0 0 0 0 0 0 0 0 0 0 0 0 0 0 0 0 0 0
-0 -0 -0 -0 -0 -0 0 -0 -0 0 0 0 -0 -0 -0 -0 -0 0 0 -0 0 0 0 -0 -0 -0 0 -0 -0 -0 0 0 0 0 0 0 0 0 0 0 0 0 0 0
-0 -0 -0 -0 -0 -0 -0 0 0 -0 -0 0 0 -0 -0 -0 -0 -0 -0 -0 -0 -0 -0 -0 -0 -0 -0 -0 -0 -0 -0 -0 -0 0 0 0 0 0 0 0 0 0 0 0
Wind_Speed_500mb
10 9 13 21 23 21 17 21 14 32 24 16 10 13 18 40 47 49 46 34 27 22 21 25 35 46 49 45 46 37 42 49 65 75 81 77 73 68 64 54 44 41 42 42
16 22 24 25 23 19 20 27 28 29 13 4 13 27 31 47 47 42 38 36 40 43 41 35 33 28 33 40 45 54 56 61 61 65 77 86 82 73 71 62 59 59 57 54
8 5 8 12 9 11 5 2 6 8 5 7 11 16 26 47 61 47 32 44 61 63 58 49 47 42 34 30 35 44 50 61 57 41 51 71 86 86 84 73 69 71 66 62
6 6 2 6 4 10 3 4 6 5 5 9 16 35 47 54 57 26 44 66 81 77 69 64 60 54 55 54 47 47 49 48 52 45 48 49 54 64 85 89 83 76 73 72
4 4 12 6 3 1 2 9 2 7 14 21 31 38 36 24 43 63 80 89 87 84 81 74 67 61 53 47 58 66 63 63 61 60 62 63 67 64 63 67 77 82 81 81
4 4 9 6 4 12 2 11 7 13 17 15 25 22 22 53 68 74 81 77 76 80 81 80 79 72 74 73 67 70 65 65 64 63 64 62 62 68 74 74 80 82 85 84
9 9 12 6 10 11 2 8 23 25 29 28 22 31 68 65 74 85 84 83 78 71 72 77 78 77 75 74 73 73 76 82 86 86 87 86 85 81 79 79 86 91 96 92
3 5 13 2 6 5 8 24 35 37 36 38 37 62 73 71 95 81 82 84 79 84 74 73 80 80 85 91 94 91 91 95 98 98 99 100 100 103 103 96 95 89 92 96
13 9 6 14 18 28 17 33 46 41 57 46 60 52 66 78 85 83 78 76 74 70 78 66 64 65 79 88 87 87 89 95 99 101 99 100 99 100 97 98 99 105 86 81
4 2 5 32 14 7 39 41 52 55 59 64 64 68 65 83 84 80 71 71 72 72 67 65 67 73 80 79 75 78 82 79 78 79 84 82 80 82 80 79 80 87 85 93
10 10 26 5 17 57 63 60 62 60 65 70 70 69 83 72 92 73 83 70 74 71 70 74 71 72 68 67 68 73 74 75 77 79 83 85 85 87 87 86 82 81 83 85
8 9 14 35 52 63 61 62 68 74 82 80 71 79 78 85 88 74 79 77 74 73 72 73 70 69 69 64 63 66 74 79 84 86 84 85 86 86 88 90 85 87 87 83
11 39 46 58 59 49 63 75 80 80 77 81 81 79 72 78 76 81 76 75 73 70 66 66 68 71 69 64 64 69 75 79 81 86 86 84 82 82 81 78 78 85 78 75
20 27 31 33 55 65 67 72 69 71 67 71 84 80 68 84 78 72 73 71 71 65 65 62 63 65 60 58 62 68 69 73 81 87 92 91 90 94 90 80 69 76 74 75
26 42 45 51 56 63 59 67 69 70 71 77 78 74 81 79 71 74 73 67 59 58 58 57 60 62 54 51 55 59 60 68 77 83 91 92 85 94 88 85 78 54 56 69
44 43 46 49 57 59 64 69 68 76 76 84 82 87 79 77 69 66 60 57 56 58 57 55 55 50 46 47 50 57 64 72 80 78 66 69 58 82 84 78 72 68 60 60
37 40 55 55 57 64 69 66 67 74 85 84 85 87 89 78 70 65 60 54 49 52 51 49 49 45 46 43 55 65 72 64 43 30 18 18 38 64 71 71 68 72 66 59
31 37 46 48 53 61 66 67 67 79 84 88 89 90 88 77 72 68 59 50 46 46 42 41 40 44 37 41 55 53 46 29 23 29 31 36 47 55 60 59 53 53 53 49
39 46 57 43 50 55 57 63 76 82 81 93 90 93 87 79 71 60 49 44 41 48 45 39 35 32 29 26 32 33 31 39 35 41 41 35 34 38 41 40 40 43 46 58
42 50 44 45 46 48 58 62 82 81 86 95 97 93 88 79 70 61 52 48 44 47 41 30 18 10 10 10 22 32 44 41 43 46 59 48 62 56 59 69 69 71 78 82
44 43 43 50 52 53 58 63 78 77 88 89 93 93 88 77 70 60 69 68 54 44 29 21 24 27 23 26 46 45 54 58 57 58 59 61 70 69 67 81 81 82 93 81
35 43 42 50 54 59 64 67 79 78 87 89 93 96 92 85 83 66 62 64 55 51 44 37 32 36 29 47 57 55 60 61 62 64 64 57 60 65 77 69 71 79 89 88
39 41 41 47 51 59 65 71 80 82 84 83 90 94 90 79 82 87 79 63 55 50 49 44 38 54 56 54 54 52 47 52 59 61 63 58 63 66 78 83 82 81 79 75
42 48 44 45 47 59 71 78 76 80 80 79 81 86 87 90 80 71 64 61 54 49 46 48 52 49 52 47 43 51 46 51 55 54 54 54 58 62 69 74 72 71 69 65
35 47 48 48 51 57 61 74 84 86 85 84 85 85 83 80 77 73 71 65 60 56 48 53 44 43 39 41 42 46 48 48 49 49 51 52 53 53 51 48 48 56 55 54
33 41 49 49 44 48 53 65 82 89 85 84 82 83 82 81 79 77 74 70 62 59 55 52 51 47 45 47 44 44 42 42 38 42 50 47 48 48 46 47 49 47 44 47
32 36 44 50 43 47 51 57 74 84 80 76 75 81 82 80 81 81 76 72 69 60 56 53 50 46 46 44 42 43 40 38 39 43 44 45 43 44 44 45 46 49 48 46
Wind_Direction_500mb
242 246 251 249 246 246 217 235 213 280 262 311 331 304 314 323 324 322 340 349 353 347 323 300 274 261 274 272 269 266 255 244 243 243 245 242 245 245 250 253 266 260 260 271
264 262 240 253 252 241 246 262 260 263 262 351 317 356 332 320 316 315 327 345 338 327 325 322 318 291 274 278 275 271 263 248 249 252 247 243 242 245 247 257 264 260 258 265
266 316 313 275 260 240 270 44 279 245 274 327 325 332 316 312 302 299 315 325 323 319 314 313 308 304 293 272 272 267 250 254 252 254 255 249 243 243 244 252 260 257 260 263
260 18 251 205 34 78 130 195 243 252 323 323 324 303 299 308 300 294 311 317 316 313 306 297 296 291 293 283 275 269 260 256 251 255 257 257 256 257 253 252 253 256 261 266
155 191 294 178 98 341 27 275 218 320 313 292 292 296 291 309 298 304 305 306 304 302 299 298 291 287 287 281 271 262 260 259 259 261 260 255 257 262 263 258 255 254 258 264
102 169 240 204 299 334 122 263 67 322 285 285 328 307 298 307 309 302 303 298 290 292 294 292 288 282 281 276 270 267 265 263 266 266 267 268 268 268 263 260 263 264 262 262
226 232 275 170 292 318 244 255 313 317 305 315 296 284 300 304 299 295 296 295 291 281 283 283 281 280 279 277 272 269 269 268 268 269 272 273 273 271 268 267 262 260 261 264
245 246 272 112 7 160 228 308 308 299 285 289 294 302 306 301 305 301 294 296 286 287 281 277 269 268 270 269 268 272 272 270 269 271 271 272 272 272 268 261 258 260 259 259
206 225 220 210 230 282 278 301 299 291 294 293 290 300 306 296 306 296 293 292 291 282 287 274 273 269 267 267 268 266 266 267 268 268 270 269 267 266 263 260 254 249 250 250
20 288 273 307 311 236 310 302 305 299 299 292 283 283 301 300 309 297 300 291 293 287 281 276 274 275 272 272 271 271 273 270 265 263 267 265 262 254 252 248 247 246 241 245
267 299 327 282 258 313 316 316 315 306 303 298 296 292 295 299 309 293 306 292 295 289 283 280 281 279 277 271 270 268 268 268 268 265 263 259 253 250 247 245 240 238 240 241
246 287 282 287 303 314 315 315 316 310 306 310 303 300 296 306 309 296 303 298 298 291 283 281 282 279 279 280 281 275 270 270 269 267 262 260 259 255 249 248 246 245 245 245
285 302 303 301 310 318 315 319 317 312 313 312 310 302 288 307 314 302 303 295 301 293 288 283 278 276 278 281 280 276 273 272 271 270 262 256 250 247 245 246 244 239 239 237
328 327 309 311 308 323 327 318 316 320 318 318 308 303 306 311 312 309 308 299 302 295 292 290 287 285 289 289 284 279 276 274 271 267 263 254 244 239 234 230 231 235 230 230
328 321 311 318 324 323 320 323 321 323 320 321 321 319 316 317 312 314 305 306 301 296 290 288 287 288 295 293 285 282 283 283 285 284 278 265 248 237 226 216 216 222 223 222
321 326 329 322 318 322 323 327 326 321 325 322 323 321 325 324 317 317 309 307 303 296 293 292 293 302 300 300 294 293 288 285 289 292 294 290 264 229 201 200 205 204 206 207
335 330 327 325 330 326 325 328 327 328 325 324 325 330 330 330 327 324 319 316 307 298 297 298 302 304 303 301 295 298 307 321 343 355 54 71 129 160 175 183 195 202 208 209
342 333 328 328 328 326 330 340 337 333 328 330 335 337 338 338 334 333 330 324 317 312 311 308 300 295 303 303 304 315 329 12 66 84 74 98 129 148 165 179 183 186 197 199
345 341 337 337 336 333 344 348 344 337 336 343 345 345 346 346 346 347 344 338 338 328 321 309 302 295 295 309 316 358 46 94 94 99 110 112 116 139 157 172 178 181 165 151
335 342 351 345 348 354 356 357 354 346 346 354 353 351 348 354 360 1 6 1 354 339 331 334 338 13 49 44 32 81 99 113 110 102 104 116 108 124 119 126 125 124 119 127
340 352 358 355 356 1 4 3 359 350 349 360 356 355 353 1 13 15 13 11 21 28 32 48 71 86 81 51 85 106 114 117 113 114 119 113 115 126 125 124 130 131 137 138
353 355 357 359 359 359 7 7 7 359 1 4 5 4 7 13 19 27 29 18 30 50 63 70 70 80 89 90 101 116 123 126 126 127 129 128 139 133 131 135 142 137 135 133
12 8 8 5 2 1 6 10 12 2 7 7 9 12 17 19 19 19 23 31 37 58 70 78 83 90 96 109 116 129 127 127 131 130 135 130 126 122 118 124 125 126 128 129
22 18 13 12 7 8 8 12 15 10 14 16 16 18 17 18 28 32 35 39 43 58 77 96 102 100 101 110 120 124 118 118 120 121 123 127 125 125 125 126 128 130 131 132
20 21 19 14 13 12 9 11 15 14 17 20 20 24 25 30 30 30 37 43 49 57 75 103 111 110 106 107 104 114 123 125 122 126 126 128 128 130 131 129 130 132 132 131
21 23 21 22 16 13 15 14 16 14 15 19 21 23 26 29 33 35 41 45 49 57 67 74 92 104 110 110 111 115 124 130 130 134 138 137 135 136 137 137 139 140 141 142
26 24 21 22 24 20 18 18 18 16 18 21 21 26 27 29 32 34 37 41 46 49 56 65 75 90 103 109 114 118 123 127 129 135 138 139 141 140 140 138 140 140 141 145
Wind_Speed_850mb
10 9 13 21 23 21 17 21 14 32 24 16 10 13 18 40 47 49 46 34 27 22 21 25 35 46 49 45 46 37 42 49 65 75 81 77 73 68 64 54 44 41 42 42
16 22 24 25 23 19 20 27 28 29 13 4 13 27 31 47 47 42 38 36 40 43 41 35 33 28 33 40 45 54 56 61 61 65 77 86 82 73 71 62 59 59 57 54
8 5 8 12 9 11 5 2 6 8 5 7 11 16 26 47 61 47 32 44 61 63 58 49 47 42 34 30 35 44 50 61 57 41 51 71 86 86 84 73 69 71 66 62
6 6 2 6 4 10 3 4 6 5 5 9 16 35 47 54 57 26 44 66 81 77 69 64 60 54 55 54 47 47 49 48 52 45 48 49 54 64 85 89 83 76 73 72
4 4 12 6 3 1 2 9 2 7 14 21 31 38 36 24 43 63 80 89 87 84 81 74 67 61 53 47 58 66 63 63 61 60 62 63 67 64 63 67 77 82 81 81
4 4 9 6 4 12 2 11 7 13 17 15 25 22 22 53 68 74 81 77 76 80 81 80 79 72 74 73 67 70 65 65 64 63 64 62 62 68 74 74 80 82 85 84
9 9 12 6 10 11 2 8 23 25 29 28 22 31 68 65 74 85 84 83 78 71 72 77 78 77 75 74 73 73 76 82 86 86 87 86 85 81 79 79 86 91 96 92
3 5 13 2 6 5 8 24 35 37 36 38 37 62 73 71 95 81 82 84 79 84 74 73 80 80 85 91 94 91 91 95 98 98 99 100 100 103 103 96 95 89 92 96
13 9 6 14 18 28 17 33 46 41 57 46 60 52 66 78 85 83 78 76 74 70 78 66 64 65 79 88 87 87 89 95 99 101 99 100 99 100 97 98 99 105 86 81
4 2 5 32 14 7 39 41 52 55 59 64 64 68 65 83 84 80 71 71 72 72 67 65 67 73 80 79 75 78 82 79 78 79 84 82 80 82 80 79 80 87 85 93
10 10 26 5 17 57 63 60 62 60 65 70 70 69 83 72 92 73 83 70 74 71 70 74 71 72 68 67 68 73 74 75 77 79 83 85 85 87 87 86 82 81 83 85
8 9 14 35 52 63 61 62 68 74 82 80 71 79 78 85 88 74 79 77 74 73 72 73 70 69 69 64 63 66 74 79 84 86 84 85 86 86 88 90 85 87 87 83
11 39 46 58 59 49 63 75 80 80 77 81 81 79 72 78 76 81 76 75 73 70 66 66 68 71 69 64 64 69 75 79 81 86 86 84 82 82 81 78 78 85 78 75
20 27 31 33 55 65 67 72 69 71 67 71 84 80 68 84 78 72 73 71 71 65 65 62 63 65 60 58 62 68 69 73 81 87 92 91 90 94 90 80 69 76 74 75
26 42 45 51 56 63 59 67 69 70 71 77 78 74 81 79 71 74 73 67 59 58 58 57 60 62 54 51 55 59 60 68 77 83 91 92 85 94 88 85 78 54 56 69
44 43 46 49 57 59 64 69 68 76 76 84 82 87 79 77 69 66 60 57 56 58 57 55 55 50 46 47 50 57 64 72 80 78 66 69 58 82 84 78 72 68 60 60
37 40 55 55 57 64 69 66 67 74 85 84 85 87 89 78 70 65 60 54 49 52 51 49 49 45 46 43 55 65 72 64 43 30 18 18 38 64 71 71 68 72 66 59
31 37 46 48 53 61 66 67 67 79 84 88 89 90 88 77 72 68 59 50 46 46 42 41 40 44 37 41 55 53 46 29 23 29 31 36 47 55 60 59 53 53 53 49
39 46 57 43 50 55 57 63 76 82 81 93 90 93 87 79 71 60 49 44 41 48 45 39 35 32 29 26 32 33 31 39 35 41 41 35 34 38 41 40 40 43 46 58
42 50 44 45 46 48 58 62 82 81 86 95 97 93 88 79 70 61 52 48 44 47 41 30 18 10 10 10 22 32 44 41 43 46 59 48 62 56 59 69 69 71 78 82
44 43 43 50 52 53 58 63 78 77 88 89 93 93 88 77 70 60 69 68 54 44 29 21 24 27 23 26 46 45 54 58 57 58 59 61 70 69 67 81 81 82 93 81
35 43 42 50 54 59 64 67 79 78 87 89 93 96 92 85 83 66 62 64 55 51 44 37 32 36 29 47 57 55 60 61 62 64 64 57 60 65 77 69 71 79 89 88
39 41 41 47 51 59 65 71 80 82 84 83 90 94 90 79 82 87 79 63 55 50 49 44 38 54 56 54 54 52 47 52 59 61 63 58 63 66 78 83 82 81 79 75
42 48 44 45 47 59 71 78 76 80 80 79 81 86 87 90 80 71 64 61 54 49 46 48 52 49 52 47 43 51 46 51 55 54 54 54 58 62 69 74 72 71 69 65
35 47 48 48 51 57 61 74 84 86 85 84 85 85 83 80 77 73 71 65 60 56 48 53 44 43 39 41 42 46 48 48 49 49 51 52 53 53 51 48 48 56 55 54
33 41 49 49 44 48 53 65 82 89 85 84 82 83 82 81 79 77 74 70 62 59 55 52 51 47 45 47 44 44 42 42 38 42 50 47 48 48 46 47 49 47 44 47
32 36 44 50 43 47 51 57 74 84 80 76 75 81 82 80 81 81 76 72 69 60 56 53 50 46 46 44 42 43 40 38 39 43 44 45 43 44 44 45 46 49 48 46
Wind_Direction_850mb
242 246 251 249 246 246 217 235 213 280 262 311 331 304 314 323 324 322 340 349 353 347 323 300 274 261 274 272 269 266 255 244 243 243 245 242 245 245 250 253 266 260 260 271
264 262 240 253 252 241 246 262 260 263 262 351 317 356 332 320 316 315 327 345 338 327 325 322 318 291 274 278 275 271 263 248 249 252 247 243 242 245 247 257 264 260 258 265
266 316 313 275 260 240 270 44 279 245 274 327 325 332 316 312 302 299 315 325 323 319 314 313 308 304 293 272 272 267 250 254 252 254 255 249 243 243 244 252 260 257 260 263
260 18 251 205 34 78 130 195 243 252 323 323 324 303 299 308 300 294 311 317 316 313 306 297 296 291 293 283 275 269 260 256 251 255 257 257 256 257 253 252 253 256 261 266
155 191 294 178 98 341 27 275 218 320 313 292 292 296 291 309 298 304 305 306 304 302 299 298 291 287 287 281 271 262 260 259 259 261 260 255 257 262 263 258 255 254 258 264
102 169 240 204 299 334 122 263 67 322 285 285 328 307 298 307 309 302 303 298 290 292 294 292 288 282 281 276 270 267 265 263 266 266 267 268 268 268 263 260 263 264 262 262
226 232 275 170 292 318 244 255 313 317 305 315 296 284 300 304 299 295 296 295 291 281 283 283 281 280 279 277 272 269 269 268 268 269 272 273 273 271 268 267 262 260 261 264
245 246 272 112 7 160 228 308 308 299 285 289 294 302 306 301 305 301 294 296 286 287 281 277 269 268 270 269 268 272 272 270 269 271 271 272 272 272 268 261 258 260 259 259
206 225 220 210 230 282 278 301 299 291 294 293 290 300 306 296 306 296 293 292 291 282 287 274 273 269 267 267 268 266 266 267 268 268 270 269 267 266 263 260 254 249 250 250
20 288 273 307 311 236 310 302 305 299 299 292 283 283 301 300 309 297 300 291 293 287 281 276 274 275 272 272 271 271 273 270 265 263 267 265 262 254 252 248 247 246 241 245
267 299 327 282 258 313 316 316 315 306 303 298 296 292 295 299 309 293 306 292 295 289 283 280 281 279 277 271 270 268 268 268 268 265 263 259 253 250 247 245 240 238 240 241
246 287 282 287 303 314 315 315 316 310 306 310 303 300 296 306 309 296 303 298 298 291 283 281 282 279 279 280 281 275 270 270 269 267 262 260 259 255 249 248 246 245 245 245
285 302 303 301 310 318 315 319 317 312 313 312 310 302 288 307 314 302 303 295 301 293 288 283 278 276 278 281 280 276 273 272 271 270 262 256 250 247 245 246 244 239 239 237
328 327 309 311 308 323 327 318 316 320 318 318 308 303 306 311 312 309 308 299 302 295 292 290 287 285 289 289 284 279 276 274 271 267 263 254 244 239 234 230 231 235 230 230
328 321 311 318 324 323 320 323 321 323 320 321 321 319 316 317 312 314 305 306 301 296 290 288 287 288 295 293 285 282 283 283 285 284 278 265 248 237 226 216 216 222 223 222
321 326 329 322 318 322 323 327 326 321 325 322 323 321 325 324 317 317 309 307 303 296 293 292 293 302 300 300 294 293 288 285 289 292 294 290 264 229 201 200 205 204 206 207
335 330 327 325 330 326 325 328 327 328 325 324 325 330 330 330 327 324 319 316 307 298 297 298 302 304 303 301 295 298 307 321 343 355 54 71 129 160 175 183 195 202 208 209
342 333 328 328 328 326 330 340 337 333 328 330 335 337 338 338 334 333 330 324 317 312 311 308 300 295 303 303 304 315 329 12 66 84 74 98 129 148 165 179 183 186 197 199
345 341 337 337 336 333 344 348 344 337 336 343 345 345 346 346 346 347 344 338 338 328 321 309 302 295 295 309 316 358 46 94 94 99 110 112 116 139 157 172 178 181 165 151
335 342 351 345 348 354 356 357 354 346 346 354 353 351 348 354 360 1 6 1 354 339 331 334 338 13 49 44 32 81 99 113 110 102 104 116 108 124 119 126 125 124 119 127
340 352 358 355 356 1 4 3 359 350 349 360 356 355 353 1 13 15 13 11 21 28 32 48 71 86 81 51 85 106 114 117 113 114 119 113 115 126 125 124 130 131 137 138
353 355 357 359 359 359 7 7 7 359 1 4 5 4 7 13 19 27 29 18 30 50 63 70 70 80 89 90 101 116 123 126 126 127 129 128 139 133 131 135 142 137 135 133
12 8 8 5 2 1 6 10 12 2 7 7 9 12 17 19 19 19 23 31 37 58 70 78 83 90 96 109 116 129 127 127 131 130 135 130 126 122 118 124 125 126 128 129
22 18 13 12 7 8 8 12 15 10 14 16 16 18 17 18 28 32 35 39 43 58 77 96 102 100 101 110 120 124 118 118 120 121 123 127 125 125 125 126 128 130 131 132
20 21 19 14 13 12 9 11 15 14 17 20 20 24 25 30 30 30 37 43 49 57 75 103 111 110 106 107 104 114 123 125 122 126 126 128 128 130 131 129 130 132 132 131
21 23 21 22 16 13 15 14 16 14 15 19 21 23 26 29 33 35 41 45 49 57 67 74 92 104 110 110 111 115 124 130 130 134 138 137 135 136 137 137 139 140 141 142
26 24 21 22 24 20 18 18 18 16 18 21 21 26 27 29 32 34 37 41 46 49 56 65 75 90 103 109 114 118 123 127 129 135 138 139 141 140 140 138 140 140 141 145